QPF
0.00 0.00 0.00 0.00 0.00 0.00 0.00 0.00 0.00 0.00 0.00 0.00 0.00 0.00 0.00 0.00 0.00 0.00 0.00 0.00 0.00 0.00 0.00 0.01 0.01 0.00 0.01 0.01 0.01 0.02 0.01 0.01 0.01 0.01 0.01 0.01 0.01 0.01 0.01 0.02 0.02 0.04 0.05 0.03
0.00 0.00 0.00 0.00 0.00 0.00 0.00 0.00 0.00 0.00 0.01 0.00 0.00 0.00 0.00 0.00 0.00 0.00 0.00 0.00 0.00 0.00 0.00 0.01 0.01 0.00 0.00 0.01 0.01 0.01 0.02 0.01 0.01 0.01 0.01 0.01 0.02 0.01 0.01 0.02 0.03 0.03 0.04 0.03
0.00 0.00 0.00 0.00 0.00 0.00 0.00 0.00 0.00 0.00 0.00 0.00 0.00 0.00 0.00 0.00 0.00 0.00 0.00 0.00 0.00 0.00 0.00 0.00 0.01 0.00 0.00 0.00 0.00 0.01 0.01 0.01 0.01 0.02 0.02 0.02 0.02 0.01 0.02 0.02 0.03 0.03 0.03 0.03
0.00 0.00 0.00 0.00 0.00 0.00 0.00 0.00 0.00 0.00 0.00 0.00 0.00 0.00 0.00 0.00 0.00 0.00 0.00 0.00 0.00 0.00 0.00 0.00 0.00 0.00 0.00 0.00 0.00 0.01 0.01 0.01 0.01 0.02 0.01 0.01 0.02 0.01 0.01 0.01 0.02 0.02 0.02 0.02
0.00 0.00 0.00 0.00 0.00 0.00 0.00 0.00 0.00 0.00 0.00 0.00 0.00 0.00 0.00 0.00 0.00 0.00 0.00 0.00 0.00 0.00 0.00 0.00 0.00 0.00 0.00 0.00 0.00 0.00 0.00 0.01 0.01 0.02 0.01 0.01 0.01 0.01 0.00 0.00 0.01 0.01 0.01 0.01
0.00 0.00 0.00 0.00 0.00 0.00 0.00 0.00 0.01 0.01 0.01 0.01 0.00 0.00 0.00 0.00 0.00 0.00 0.00 0.00 0.00 0.00 0.00 0.00 0.00 0.00 0.00 0.00 0.00 0.00 0.00 0.00 0.01 0.02 0.02 0.01 0.01 0.01 0.00 0.00 0.00 0.01 0.01 0.01
0.00 0.00 0.00 0.00 0.00 0.00 0.00 0.00 0.01 0.01 0.01 0.01 0.00 0.01 0.00 0.00 0.00 0.00 0.00 0.00 0.00 0.00 0.00 0.00 0.00 0.00 0.00 0.00 0.00 0.00 0.00 0.00 0.01 0.01 0.00 0.00 0.01 0.01 0.00 0.00 0.00 0.00 0.01 0.01
0.00 0.00 0.00 0.00 0.00 0.00 0.00 0.00 0.01 0.01 0.01 0.00 0.00 0.00 0.00 0.00 0.00 0.00 0.00 0.00 0.00 0.00 0.00 0.00 0.00 0.00 0.00 0.00 0.00 0.00 0.00 0.01 0.00 0.00 0.00 0.00 0.01 0.02 0.01 0.00 0.00 0.00 0.01 0.01
0.00 0.00 0.00 0.00 0.00 0.00 0.00 0.00 0.01 0.01 0.01 0.01 0.01 0.00 0.00 0.00 0.00 0.00 0.00 0.00 0.00 0.00 0.01 0.00 0.00 0.00 0.00 0.00 0.01 0.00 0.00 0.00 0.00 0.00 0.00 0.00 0.01 0.01 0.01 0.01 0.01 0.01 0.00 0.00
0.00 0.00 0.00 0.00 0.00 0.00 0.00 0.00 0.01 0.01 0.02 0.02 0.01 0.01 0.01 0.00 0.00 0.00 0.00 0.00 0.00 0.00 0.01 0.01 0.01 0.00 0.00 0.01 0.01 0.01 0.00 0.00 0.00 0.00 0.00 0.00 0.01 0.01 0.01 0.01 0.00 0.01 0.00 0.00
0.00 0.00 0.00 0.00 0.00 0.00 0.01 0.01 0.01 0.01 0.02 0.03 0.03 0.02 0.01 0.01 0.01 0.01 0.01 0.01 0.01 0.01 0.01 0.01 0.00 0.00 0.01 0.01 0.01 0.01 0.00 0.01 0.00 0.00 0.00 0.00 0.01 0.01 0.02 0.01 0.01 0.01 0.01 0.00
0.01 0.01 0.00 0.00 0.00 0.00 0.00 0.01 0.01 0.01 0.02 0.02 0.02 0.02 0.01 0.01 0.01 0.02 0.02 0.01 0.00 0.00 0.00 0.01 0.01 0.00 0.00 0.01 0.01 0.01 0.01 0.00 0.01 0.01 0.01 0.00 0.01 0.01 0.01 0.02 0.02 0.02 0.02 0.01
0.01 0.01 0.01 0.00 0.00 0.00 0.00 0.00 0.00 0.00 0.01 0.02 0.02 0.02 0.01 0.01 0.02 0.03 0.03 0.01 0.01 0.00 0.00 0.01 0.01 0.01 0.01 0.01 0.01 0.01 0.01 0.01 0.01 0.01 0.01 0.01 0.01 0.01 0.01 0.02 0.02 0.02 0.02 0.01
0.01 0.01 0.01 0.01 0.01 0.01 0.00 0.00 0.00 0.01 0.01 0.01 0.01 0.01 0.01 0.01 0.02 0.03 0.04 0.02 0.01 0.01 0.00 0.00 0.00 0.01 0.01 0.01 0.01 0.02 0.01 0.01 0.01 0.01 0.01 0.01 0.01 0.01 0.01 0.01 0.02 0.02 0.01 0.01
0.01 0.01 0.00 0.00 0.00 0.01 0.01 0.00 0.00 0.01 0.01 0.01 0.01 0.01 0.01 0.02 0.01 0.02 0.03 0.02 0.02 0.01 0.01 0.01 0.00 0.01 0.01 0.00 0.01 0.02 0.01 0.01 0.01 0.01 0.01 0.01 0.01 0.01 0.01 0.01 0.01 0.02 0.01 0.01
0.01 0.01 0.01 0.00 0.00 0.00 0.00 0.00 0.00 0.00 0.01 0.01 0.01 0.01 0.02 0.02 0.01 0.01 0.02 0.02 0.02 0.02 0.01 0.01 0.01 0.01 0.01 0.01 0.01 0.01 0.01 0.01 0.01 0.01 0.01 0.01 0.01 0.01 0.01 0.01 0.01 0.01 0.01 0.01
0.01 0.01 0.01 0.01 0.00 0.01 0.00 0.00 0.00 0.00 0.01 0.01 0.02 0.02 0.01 0.01 0.01 0.01 0.01 0.02 0.02 0.02 0.02 0.01 0.01 0.01 0.01 0.01 0.01 0.01 0.01 0.01 0.01 0.01 0.01 0.01 0.01 0.01 0.01 0.01 0.01 0.01 0.02 0.02
0.01 0.01 0.02 0.01 0.01 0.01 0.00 0.00 0.00 0.00 0.00 0.00 0.02 0.02 0.00 0.00 0.00 0.01 0.01 0.01 0.02 0.02 0.02 0.01 0.02 0.02 0.01 0.01 0.01 0.01 0.01 0.01 0.02 0.01 0.01 0.01 0.01 0.01 0.01 0.01 0.01 0.01 0.01 0.02
0.02 0.02 0.03 0.03 0.02 0.01 0.01 0.01 0.00 0.01 0.01 0.01 0.02 0.01 0.01 0.01 0.01 0.01 0.01 0.01 0.01 0.02 0.02 0.02 0.02 0.01 0.01 0.02 0.02 0.01 0.02 0.02 0.02 0.03 0.02 0.02 0.03 0.03 0.01 0.01 0.01 0.01 0.01 0.02
0.01 0.02 0.03 0.04 0.04 0.03 0.02 0.01 0.01 0.01 0.02 0.01 0.01 0.02 0.02 0.01 0.01 0.01 0.00 0.00 0.00 0.01 0.01 0.01 0.01 0.01 0.01 0.01 0.02 0.01 0.02 0.03 0.04 0.04 0.03 0.02 0.02 0.02 0.01 0.01 0.01 0.01 0.01 0.01
0.02 0.02 0.02 0.03 0.03 0.02 0.01 0.01 0.01 0.01 0.01 0.01 0.01 0.01 0.01 0.00 0.00 0.00 0.00 0.00 0.00 0.00 0.01 0.01 0.01 0.01 0.01 0.01 0.01 0.01 0.01 0.02 0.04 0.04 0.03 0.02 0.02 0.01 0.01 0.01 0.01 0.01 0.01 0.01
0.02 0.02 0.02 0.02 0.03 0.03 0.02 0.01 0.01 0.01 0.00 0.00 0.00 0.00 0.01 0.00 0.00 0.00 0.00 0.00 0.00 0.00 0.01 0.01 0.01 0.01 0.01 0.01 0.01 0.01 0.01 0.02 0.04 0.04 0.03 0.02 0.02 0.01 0.01 0.01 0.01 0.01 0.01 0.01
0.01 0.01 0.01 0.02 0.03 0.02 0.02 0.02 0.02 0.01 0.00 0.00 0.00 0.00 0.00 0.00 0.00 0.00 0.00 0.00 0.00 0.00 0.00 0.01 0.01 0.01 0.01 0.01 0.01 0.01 0.01 0.01 0.02 0.04 0.03 0.02 0.02 0.01 0.01 0.01 0.01 0.01 0.01 0.01
0.01 0.01 0.01 0.01 0.01 0.01 0.02 0.02 0.02 0.01 0.01 0.00 0.00 0.00 0.00 0.00 0.01 0.01 0.01 0.00 0.00 0.00 0.00 0.01 0.01 0.01 0.01 0.02 0.01 0.01 0.01 0.01 0.02 0.03 0.04 0.02 0.02 0.02 0.02 0.02 0.01 0.01 0.01 0.01
0.01 0.01 0.01 0.01 0.01 0.01 0.01 0.01 0.01 0.01 0.01 0.01 0.00 0.00 0.00 0.00 0.01 0.01 0.01 0.01 0.00 0.00 0.00 0.01 0.01 0.01 0.01 0.01 0.02 0.02 0.02 0.02 0.02 0.02 0.03 0.03 0.02 0.02 0.02 0.02 0.01 0.01 0.01 0.01
0.00 0.01 0.01 0.00 0.00 0.01 0.01 0.00 0.01 0.02 0.01 0.01 0.00 0.00 0.00 0.01 0.01 0.01 0.01 0.01 0.01 0.00 0.00 0.00 0.00 0.00 0.00 0.01 0.01 0.01 0.01 0.01 0.01 0.01 0.01 0.02 0.02 0.02 0.01 0.01 0.01 0.01 0.01 0.01
MSLP
1014.88 1015.44 1015.85 1016.13 1016.28 1016.37 1016.41 1016.44 1016.48 1016.52 1016.54 1016.53 1016.48 1016.38 1016.26 1016.14 1016.05 1016.02 1016.05 1016.16 1016.32 1016.52 1016.71 1016.88 1017.01 1017.11 1017.18 1017.27 1017.38 1017.55 1017.78 1018.07 1018.38 1018.70 1019.00 1019.25 1019.45 1019.58 1019.66 1019.71 1019.74 1019.76 1019.78 1019.81
1015.34 1015.76 1016.03 1016.17 1016.21 1016.20 1016.19 1016.19 1016.22 1016.25 1016.26 1016.23 1016.13 1015.98 1015.79 1015.61 1015.47 1015.41 1015.47 1015.62 1015.87 1016.16 1016.46 1016.73 1016.95 1017.11 1017.22 1017.32 1017.44 1017.59 1017.82 1018.09 1018.41 1018.73 1019.04 1019.30 1019.50 1019.62 1019.70 1019.73 1019.74 1019.75 1019.78 1019.81
1015.68 1015.97 1016.11 1016.12 1016.08 1016.02 1015.98 1015.99 1016.03 1016.07 1016.07 1015.99 1015.83 1015.58 1015.29 1015.00 1014.78 1014.67 1014.71 1014.89 1015.20 1015.58 1015.99 1016.37 1016.68 1016.92 1017.10 1017.23 1017.37 1017.53 1017.75 1018.03 1018.35 1018.68 1018.99 1019.25 1019.45 1019.57 1019.63 1019.65 1019.65 1019.66 1019.69 1019.74
1015.87 1016.03 1016.06 1016.00 1015.91 1015.85 1015.84 1015.89 1015.97 1016.03 1016.02 1015.90 1015.64 1015.28 1014.84 1014.41 1014.06 1013.86 1013.84 1014.01 1014.34 1014.79 1015.29 1015.77 1016.19 1016.51 1016.76 1016.95 1017.13 1017.32 1017.56 1017.85 1018.18 1018.53 1018.85 1019.12 1019.31 1019.43 1019.48 1019.50 1019.49 1019.50 1019.53 1019.59
1015.88 1015.95 1015.91 1015.82 1015.75 1015.73 1015.80 1015.93 1016.07 1016.17 1016.16 1015.99 1015.64 1015.13 1014.54 1013.93 1013.42 1013.07 1012.95 1013.07 1013.40 1013.88 1014.43 1014.99 1015.50 1015.91 1016.23 1016.49 1016.71 1016.95 1017.23 1017.55 1017.91 1018.27 1018.62 1018.90 1019.11 1019.23 1019.29 1019.29 1019.29 1019.29 1019.32 1019.38
1015.72 1015.74 1015.69 1015.62 1015.60 1015.68 1015.85 1016.09 1016.34 1016.49 1016.49 1016.28 1015.83 1015.19 1014.42 1013.63 1012.93 1012.43 1012.18 1012.20 1012.48 1012.95 1013.53 1014.14 1014.70 1015.19 1015.57 1015.89 1016.17 1016.45 1016.77 1017.12 1017.52 1017.92 1018.29 1018.61 1018.84 1018.98 1019.04 1019.05 1019.04 1019.03 1019.05 1019.11
1015.46 1015.46 1015.43 1015.42 1015.50 1015.70 1016.00 1016.37 1016.71 1016.94 1016.96 1016.71 1016.19 1015.42 1014.49 1013.53 1012.66 1011.99 1011.60 1011.52 1011.72 1012.15 1012.72 1013.34 1013.93 1014.45 1014.88 1015.24 1015.56 1015.87 1016.22 1016.61 1017.04 1017.47 1017.88 1018.23 1018.50 1018.66 1018.74 1018.76 1018.74 1018.72 1018.72 1018.76
1015.17 1015.19 1015.20 1015.27 1015.45 1015.77 1016.20 1016.69 1017.13 1017.42 1017.46 1017.19 1016.60 1015.74 1014.70 1013.60 1012.58 1011.77 1011.25 1011.06 1011.17 1011.54 1012.07 1012.67 1013.26 1013.79 1014.23 1014.60 1014.94 1015.27 1015.63 1016.03 1016.48 1016.94 1017.39 1017.77 1018.07 1018.27 1018.37 1018.40 1018.38 1018.35 1018.32 1018.32
1014.94 1014.98 1015.04 1015.19 1015.46 1015.87 1016.40 1016.96 1017.46 1017.79 1017.85 1017.57 1016.95 1016.03 1014.91 1013.72 1012.61 1011.70 1011.09 1010.80 1010.84 1011.14 1011.61 1012.17 1012.73 1013.24 1013.67 1014.03 1014.35 1014.66 1015.01 1015.42 1015.86 1016.34 1016.80 1017.22 1017.55 1017.78 1017.91 1017.95 1017.93 1017.89 1017.84 1017.81
1014.83 1014.90 1015.00 1015.18 1015.50 1015.95 1016.51 1017.10 1017.61 1017.94 1017.99 1017.70 1017.06 1016.12 1014.97 1013.75 1012.61 1011.66 1010.99 1010.65 1010.63 1010.87 1011.29 1011.80 1012.32 1012.78 1013.17 1013.50 1013.78 1014.07 1014.39 1014.76 1015.20 1015.66 1016.13 1016.56 1016.92 1017.18 1017.34 1017.40 1017.39 1017.35 1017.28 1017.23
1014.89 1014.96 1015.05 1015.23 1015.53 1015.95 1016.46 1017.00 1017.46 1017.74 1017.76 1017.45 1016.81 1015.88 1014.75 1013.56 1012.43 1011.48 1010.81 1010.45 1010.40 1010.60 1010.97 1011.43 1011.90 1012.33 1012.68 1012.96 1013.21 1013.45 1013.73 1014.07 1014.47 1014.92 1015.38 1015.82 1016.20 1016.49 1016.68 1016.76 1016.78 1016.74 1016.68 1016.62
1015.10 1015.12 1015.17 1015.29 1015.50 1015.82 1016.22 1016.64 1017.00 1017.19 1017.14 1016.80 1016.16 1015.26 1014.19 1013.05 1011.98 1011.08 1010.44 1010.08 1010.01 1010.18 1010.52 1010.94 1011.38 1011.76 1012.08 1012.34 1012.56 1012.77 1013.02 1013.33 1013.70 1014.13 1014.58 1015.02 1015.42 1015.73 1015.95 1016.08 1016.12 1016.11 1016.07 1016.02
1015.39 1015.35 1015.31 1015.32 1015.39 1015.56 1015.79 1016.05 1016.25 1016.32 1016.19 1015.81 1015.17 1014.32 1013.31 1012.26 1011.26 1010.42 1009.82 1009.48 1009.40 1009.54 1009.84 1010.23 1010.63 1011.00 1011.31 1011.56 1011.78 1011.99 1012.23 1012.53 1012.89 1013.30 1013.75 1014.20 1014.60 1014.95 1015.20 1015.37 1015.46 1015.49 1015.48 1015.47
1015.71 1015.58 1015.43 1015.29 1015.21 1015.19 1015.23 1015.30 1015.34 1015.28 1015.06 1014.64 1014.01 1013.21 1012.27 1011.30 1010.37 1009.59 1009.01 1008.66 1008.55 1008.65 1008.90 1009.25 1009.63 1009.99 1010.30 1010.58 1010.82 1011.07 1011.33 1011.65 1012.02 1012.45 1012.90 1013.36 1013.79 1014.16 1014.46 1014.68 1014.82 1014.90 1014.95 1014.97
1015.99 1015.76 1015.49 1015.21 1014.97 1014.77 1014.63 1014.53 1014.42 1014.24 1013.95 1013.51 1012.91 1012.15 1011.29 1010.38 1009.50 1008.74 1008.14 1007.75 1007.58 1007.60 1007.77 1008.06 1008.39 1008.74 1009.08 1009.39 1009.69 1010.00 1010.33 1010.70 1011.11 1011.56 1012.04 1012.52 1012.98 1013.39 1013.74 1014.01 1014.21 1014.35 1014.45 1014.53
1016.19 1015.88 1015.50 1015.11 1014.73 1014.40 1014.12 1013.89 1013.67 1013.42 1013.10 1012.66 1012.09 1011.39 1010.58 1009.72 1008.86 1008.08 1007.42 1006.94 1006.64 1006.53 1006.58 1006.76 1007.02 1007.34 1007.69 1008.05 1008.41 1008.80 1009.21 1009.65 1010.12 1010.62 1011.14 1011.66 1012.15 1012.60 1012.99 1013.32 1013.58 1013.79 1013.95 1014.08
1016.32 1015.95 1015.51 1015.04 1014.58 1014.16 1013.80 1013.50 1013.24 1012.97 1012.66 1012.26 1011.75 1011.11 1010.35 1009.51 1008.64 1007.79 1007.03 1006.39 1005.91 1005.60 1005.47 1005.49 1005.64 1005.89 1006.22 1006.60 1007.02 1007.48 1007.97 1008.49 1009.04 1009.60 1010.16 1010.72 1011.25 1011.74 1012.18 1012.56 1012.88 1013.15 1013.37 1013.56
1016.44 1016.03 1015.56 1015.07 1014.58 1014.14 1013.76 1013.46 1013.21 1012.98 1012.72 1012.40 1011.96 1011.39 1010.68 1009.85 1008.93 1007.98 1007.06 1006.22 1005.51 1004.96 1004.58 1004.39 1004.37 1004.50 1004.76 1005.13 1005.58 1006.08 1006.64 1007.23 1007.83 1008.44 1009.05 1009.64 1010.21 1010.74 1011.22 1011.65 1012.03 1012.37 1012.65 1012.88
1016.60 1016.19 1015.73 1015.24 1014.77 1014.35 1014.01 1013.75 1013.56 1013.40 1013.23 1013.00 1012.65 1012.16 1011.49 1010.66 1009.69 1008.63 1007.53 1006.46 1005.49 1004.65 1004.00 1003.55 1003.31 1003.27 1003.41 1003.71 1004.13 1004.64 1005.22 1005.85 1006.49 1007.14 1007.77 1008.39 1008.98 1009.54 1010.06 1010.54 1010.98 1011.37 1011.71 1012.01
1016.87 1016.47 1016.03 1015.58 1015.14 1014.77 1014.48 1014.28 1014.16 1014.09 1014.02 1013.88 1013.63 1013.21 1012.59 1011.76 1010.74 1009.57 1008.30 1007.01 1005.77 1004.64 1003.70 1002.97 1002.48 1002.23 1002.21 1002.39 1002.73 1003.21 1003.77 1004.39 1005.04 1005.69 1006.34 1006.97 1007.57 1008.15 1008.70 1009.22 1009.71 1010.16 1010.57 1010.92
1017.27 1016.89 1016.47 1016.04 1015.64 1015.30 1015.05 1014.90 1014.85 1014.85 1014.85 1014.80 1014.63 1014.28 1013.71 1012.89 1011.84 1010.58 1009.17 1007.70 1006.23 1004.84 1003.62 1002.63 1001.88 1001.41 1001.20 1001.22 1001.45 1001.84 1002.35 1002.93 1003.55 1004.18 1004.82 1005.44 1006.04 1006.63 1007.20 1007.75 1008.28 1008.79 1009.26 1009.67
1017.77 1017.39 1016.98 1016.55 1016.15 1015.82 1015.58 1015.45 1015.41 1015.45 1015.50 1015.50 1015.39 1015.10 1014.58 1013.79 1012.73 1011.43 1009.94 1008.34 1006.70 1005.12 1003.68 1002.45 1001.49 1000.80 1000.40 1000.26 1000.35 1000.63 1001.05 1001.57 1002.13 1002.72 1003.32 1003.91 1004.50 1005.08 1005.66 1006.24 1006.80 1007.36 1007.88 1008.36
1018.32 1017.92 1017.47 1017.02 1016.59 1016.22 1015.94 1015.78 1015.71 1015.73 1015.78 1015.80 1015.72 1015.48 1015.00 1014.26 1013.23 1011.95 1010.44 1008.79 1007.07 1005.37 1003.79 1002.41 1001.27 1000.41 999.85 999.56 999.52 999.68 1000.00 1000.43 1000.93 1001.46 1002.00 1002.55 1003.11 1003.67 1004.24 1004.82 1005.41 1005.99 1006.56 1007.10
1018.81 1018.36 1017.86 1017.34 1016.85 1016.41 1016.05 1015.81 1015.67 1015.63 1015.63 1015.63 1015.55 1015.33 1014.91 1014.22 1013.27 1012.05 1010.60 1008.98 1007.27 1005.55 1003.92 1002.46 1001.23 1000.27 999.59 999.18 999.03 999.09 999.32 999.66 1000.08 1000.54 1001.02 1001.52 1002.03 1002.55 1003.10 1003.66 1004.24 1004.84 1005.43 1006.00
1019.15 1018.63 1018.06 1017.47 1016.89 1016.35 1015.90 1015.54 1015.30 1015.16 1015.09 1015.03 1014.94 1014.73 1014.36 1013.75 1012.90 1011.79 1010.46 1008.95 1007.33 1005.69 1004.09 1002.65 1001.40 1000.39 999.66 999.19 998.96 998.94 999.09 999.35 999.70 1000.09 1000.51 1000.94 1001.39 1001.85 1002.34 1002.86 1003.41 1003.98 1004.56 1005.14
1019.24 1018.67 1018.04 1017.39 1016.73 1016.10 1015.54 1015.08 1014.73 1014.48 1014.31 1014.19 1014.06 1013.86 1013.53 1013.01 1012.28 1011.32 1010.15 1008.81 1007.34 1005.84 1004.36 1003.00 1001.80 1000.82 1000.09 999.59 999.33 999.26 999.35 999.56 999.84 1000.16 1000.51 1000.86 1001.23 1001.62 1002.03 1002.48 1002.96 1003.47 1004.01 1004.55
Thickness
5746 5739 5732 5735 5737 5735 5731 5726 5723 5727 5735 5729 5728 5731 5737 5741 5737 5736 5736 5736 5736 5736 5737 5736 5734 5731 5729 5727 5725 5721 5719 5717 5714 5710 5708 5706 5705 5704 5704 5703 5702 5700 5700 5700
5735 5731 5737 5738 5736 5731 5728 5723 5723 5728 5732 5727 5728 5731 5739 5740 5737 5737 5737 5736 5736 5736 5735 5733 5731 5729 5727 5725 5723 5721 5719 5716 5713 5710 5709 5706 5704 5703 5702 5699 5698 5698 5697 5696
5729 5733 5736 5731 5727 5725 5725 5722 5722 5720 5726 5729 5724 5726 5734 5738 5738 5737 5737 5738 5738 5736 5734 5733 5730 5728 5726 5724 5722 5720 5718 5715 5712 5709 5707 5703 5701 5700 5698 5696 5695 5695 5694 5693
5729 5732 5728 5725 5724 5724 5720 5728 5724 5720 5717 5718 5719 5711 5730 5735 5733 5733 5735 5736 5736 5736 5735 5733 5730 5727 5725 5724 5722 5720 5718 5715 5712 5709 5705 5702 5698 5697 5697 5696 5694 5693 5691 5690
5723 5726 5723 5720 5724 5725 5724 5728 5723 5719 5717 5716 5719 5712 5725 5733 5728 5732 5735 5736 5736 5735 5734 5731 5729 5727 5726 5723 5720 5718 5716 5713 5710 5708 5704 5701 5699 5698 5696 5694 5692 5691 5689 5687
5725 5729 5727 5725 5727 5727 5725 5721 5718 5716 5715 5703 5714 5710 5714 5729 5729 5733 5736 5736 5735 5734 5732 5731 5729 5726 5724 5721 5717 5715 5713 5710 5708 5705 5703 5700 5698 5695 5693 5691 5689 5687 5686 5685
5716 5722 5726 5727 5720 5721 5720 5713 5701 5698 5698 5702 5715 5708 5715 5730 5733 5733 5733 5734 5734 5733 5731 5728 5726 5723 5720 5718 5715 5713 5710 5708 5705 5703 5701 5700 5697 5695 5692 5690 5688 5686 5684 5682
5705 5707 5719 5722 5719 5716 5716 5714 5698 5688 5691 5703 5709 5705 5720 5730 5731 5732 5733 5732 5731 5730 5729 5727 5724 5722 5719 5716 5714 5712 5709 5706 5704 5702 5701 5699 5697 5693 5692 5689 5688 5685 5684 5682
5705 5705 5719 5720 5722 5720 5711 5710 5716 5704 5700 5694 5705 5713 5721 5727 5726 5726 5726 5726 5725 5725 5724 5723 5722 5720 5718 5716 5713 5711 5708 5706 5703 5701 5699 5698 5695 5692 5689 5688 5686 5683 5682 5679
5710 5701 5711 5715 5717 5713 5715 5714 5706 5697 5684 5684 5697 5704 5709 5715 5717 5720 5721 5721 5721 5721 5721 5719 5718 5717 5716 5714 5711 5709 5707 5705 5702 5700 5698 5695 5694 5691 5687 5685 5683 5681 5679 5677
5707 5699 5702 5707 5704 5705 5703 5702 5703 5700 5696 5684 5683 5698 5714 5713 5715 5715 5717 5718 5718 5717 5716 5716 5714 5714 5712 5711 5708 5706 5704 5702 5699 5698 5696 5693 5691 5688 5685 5682 5680 5678 5676 5674
5700 5698 5696 5701 5708 5708 5707 5706 5702 5690 5689 5690 5685 5695 5716 5712 5713 5713 5714 5715 5715 5714 5713 5712 5710 5709 5707 5706 5705 5703 5701 5699 5696 5695 5693 5691 5688 5685 5683 5680 5678 5675 5673 5671
5692 5689 5684 5687 5692 5697 5697 5698 5699 5698 5693 5688 5682 5691 5710 5710 5708 5709 5708 5710 5710 5709 5707 5706 5704 5703 5702 5702 5701 5699 5698 5696 5694 5692 5689 5687 5685 5683 5680 5678 5675 5673 5670 5668
5687 5687 5683 5677 5686 5690 5687 5688 5690 5689 5685 5686 5689 5693 5701 5701 5700 5701 5702 5704 5705 5704 5702 5701 5699 5699 5698 5698 5698 5696 5694 5693 5691 5688 5686 5684 5682 5679 5677 5674 5672 5669 5667 5665
5680 5679 5682 5683 5685 5684 5684 5684 5684 5683 5686 5684 5690 5690 5694 5695 5695 5697 5698 5698 5698 5698 5698 5697 5695 5695 5694 5695 5694 5693 5691 5690 5688 5685 5682 5681 5679 5676 5673 5670 5667 5665 5663 5661
5671 5670 5672 5673 5676 5676 5675 5681 5681 5680 5682 5683 5683 5685 5694 5693 5694 5693 5694 5693 5692 5692 5693 5694 5693 5691 5691 5691 5690 5688 5687 5686 5684 5682 5679 5677 5674 5671 5668 5665 5663 5661 5659 5657
5660 5661 5658 5663 5667 5666 5667 5679 5679 5677 5679 5679 5677 5682 5686 5684 5684 5685 5687 5687 5687 5688 5689 5689 5689 5688 5688 5688 5687 5684 5683 5682 5680 5678 5676 5672 5669 5666 5663 5661 5659 5656 5654 5652
5652 5653 5653 5654 5655 5648 5673 5681 5679 5674 5673 5676 5675 5676 5678 5678 5680 5681 5682 5682 5682 5683 5684 5684 5685 5684 5684 5684 5682 5681 5679 5677 5676 5673 5671 5668 5665 5662 5659 5657 5654 5652 5651 5648
5647 5645 5643 5644 5644 5653 5664 5667 5666 5664 5663 5667 5665 5666 5670 5674 5675 5677 5678 5677 5677 5678 5679 5680 5680 5680 5679 5678 5677 5675 5673 5672 5670 5668 5666 5664 5661 5657 5654 5652 5650 5649 5646 5644
5636 5638 5637 5635 5633 5639 5654 5658 5661 5659 5654 5657 5657 5657 5659 5663 5663 5668 5671 5671 5671 5672 5673 5673 5674 5674 5672 5671 5670 5668 5667 5666 5664 5663 5662 5660 5658 5654 5650 5649 5647 5645 5642 5640
5628 5627 5629 5631 5631 5641 5646 5649 5651 5642 5647 5650 5651 5651 5652 5652 5655 5659 5662 5662 5663 5663 5664 5665 5665 5664 5664 5664 5662 5660 5660 5659 5659 5658 5656 5654 5652 5649 5647 5645 5643 5640 5638 5635
5626 5625 5626 5626 5624 5631 5639 5639 5638 5641 5644 5644 5644 5644 5644 5646 5647 5649 5651 5652 5653 5654 5654 5655 5655 5655 5656 5656 5655 5653 5653 5654 5652 5651 5649 5648 5646 5644 5642 5639 5637 5635 5633 5630
5619 5623 5625 5626 5627 5630 5632 5632 5633 5635 5635 5635 5635 5636 5636 5636 5637 5639 5640 5642 5644 5645 5646 5646 5647 5647 5647 5647 5647 5646 5646 5645 5644 5643 5642 5641 5640 5638 5636 5634 5631 5628 5626 5624
5612 5610 5613 5616 5621 5622 5622 5623 5623 5625 5626 5626 5627 5627 5627 5627 5628 5629 5631 5632 5634 5636 5637 5638 5638 5638 5639 5640 5639 5638 5638 5637 5636 5636 5635 5634 5633 5632 5630 5628 5625 5622 5620 5618
5603 5602 5603 5607 5611 5612 5614 5615 5615 5615 5617 5617 5618 5618 5618 5618 5618 5619 5621 5623 5625 5627 5629 5629 5629 5630 5630 5631 5631 5630 5629 5629 5628 5628 5628 5627 5625 5624 5622 5620 5617 5616 5614 5612
5599 5597 5597 5601 5606 5604 5606 5607 5607 5606 5607 5608 5608 5609 5609 5609 5609 5611 5611 5613 5615 5617 5619 5620 5621 5621 5622 5622 5622 5622 5621 5621 5620 5620 5620 5618 5617 5615 5613 5611 5608 5603 5602 5600